TimePDT,TemperatureF,Dew PointF,Humidity,Sea Level PressureIn,VisibilityMPH,Wind Direction,Wind SpeedMPH,Gust SpeedMPH,PrecipitationIn,Events,Conditions,WindDirDegrees,DateUTC
12:53 AM,68.0,63.0,84,29.90,10.0,SE,3.5,-,N/A,,Clear,130,2012-10-07 07:53:00
1:53 AM,66.9,62.1,84,29.90,10.0,Calm,Calm,-,N/A,,Clear,0,2012-10-07 08:53:00
2:12 AM,66.2,62.6,88,29.90,10.0,Calm,Calm,-,N/A,,Mostly Cloudy,0,2012-10-07 09:12:00
2:35 AM,66.2,62.6,88,29.89,10.0,Calm,Calm,-,N/A,,Scattered Clouds,0,2012-10-07 09:35:00
2:53 AM,66.9,62.1,84,29.89,10.0,Calm,Calm,-,N/A,,Clear,0,2012-10-07 09:53:00
3:53 AM,66.9,62.1,84,29.88,10.0,Calm,Calm,-,N/A,,Partly Cloudy,0,2012-10-07 10:53:00
4:34 AM,66.2,62.6,88,29.89,10.0,Calm,Calm,-,N/A,,Mostly Cloudy,0,2012-10-07 11:34:00
4:53 AM,66.0,62.1,87,29.89,9.0,Calm,Calm,-,N/A,,Overcast,0,2012-10-07 11:53:00
5:20 AM,66.2,62.6,88,29.89,9.0,Calm,Calm,-,N/A,,Scattered Clouds,0,2012-10-07 12:20:00
5:53 AM,64.0,61.0,90,29.89,9.0,Calm,Calm,-,N/A,,Clear,0,2012-10-07 12:53:00
6:53 AM,64.9,61.0,87,29.90,9.0,Calm,Calm,-,N/A,,Clear,0,2012-10-07 13:53:00
7:53 AM,66.0,62.1,87,29.92,9.0,Calm,Calm,-,N/A,,Clear,0,2012-10-07 14:53:00
8:53 AM,71.1,62.1,73,29.94,10.0,Calm,Calm,-,N/A,,Scattered Clouds,0,2012-10-07 15:53:00
9:53 AM,72.0,62.1,71,29.94,10.0,Variable,4.6,-,N/A,,Mostly Cloudy,0,2012-10-07 16:53:00
10:03 AM,71.6,60.8,69,29.93,10.0,Calm,Calm,-,N/A,,Scattered Clouds,0,2012-10-07 17:03:00
10:28 AM,73.4,60.8,65,29.93,10.0,Calm,Calm,-,N/A,,Mostly Cloudy,0,2012-10-07 17:28:00
10:53 AM,73.0,62.1,68,29.93,10.0,South,5.8,-,N/A,,Mostly Cloudy,170,2012-10-07 17:53:00
11:53 AM,75.0,62.1,64,29.92,10.0,South,5.8,-,N/A,,Partly Cloudy,190,2012-10-07 18:53:00
12:53 PM,77.0,62.1,60,29.91,10.0,South,6.9,-,N/A,,Clear,170,2012-10-07 19:53:00
1:53 PM,75.9,61.0,60,29.88,10.0,SW,5.8,-,N/A,,Partly Cloudy,220,2012-10-07 20:53:00
2:53 PM,77.0,62.1,60,29.87,10.0,South,8.1,-,N/A,,Clear,170,2012-10-07 21:53:00
3:53 PM,78.1,62.1,58,29.86,10.0,South,6.9,-,N/A,,Clear,180,2012-10-07 22:53:00
4:53 PM,77.0,62.1,60,29.86,10.0,NW,11.5,-,N/A,,Clear,310,2012-10-07 23:53:00
5:53 PM,73.9,61.0,64,29.87,10.0,NW,11.5,-,N/A,,Clear,310,2012-10-08 00:53:00
6:53 PM,71.1,62.1,73,29.88,10.0,NW,9.2,-,N/A,,Clear,310,2012-10-08 01:53:00
7:53 PM,70.0,62.1,76,29.90,10.0,WNW,6.9,-,N/A,,Clear,300,2012-10-08 02:53:00
8:53 PM,69.1,62.1,78,29.91,10.0,NW,5.8,-,N/A,,Clear,320,2012-10-08 03:53:00
9:53 PM,68.0,62.1,81,29.91,10.0,Calm,Calm,-,N/A,,Clear,0,2012-10-08 04:53:00
10:53 PM,68.0,60.1,76,29.92,10.0,NW,3.5,-,N/A,,Clear,320,2012-10-08 05:53:00
11:53 PM,68.0,60.1,76,29.92,10.0,Calm,Calm,-,N/A,,Clear,0,2012-10-08 06:53:00